Wind_Speed
39 39 39 40 41 42 43 44 45 45 46 47 46 46 47 47 48 49 50 52 53 53 55 56 58 59 61 62 62 63 63 63 64 64 64 64 63 62 62 61 60 60 59
39 39 39 40 41 42 43 43 44 45 45 45 46 46 46 48 49 50 52 52 54 55 56 57 58 59 59 59 59 59 58 58 57 57 57 56 55 55 54 53 52 51 51
38 38 39 40 41 42 43 44 44 44 44 44 44 45 47 48 49 51 52 53 54 55 56 56 56 56 56 56 55 54 53 52 51 51 50 50 49 48 46 46 45 45 44
37 37 39 40 40 41 42 42 42 42 43 43 44 45 46 47 49 50 52 53 53 54 54 54 54 53 52 51 49 48 47 46 45 44 44 43 42 41 41 40 39 38 38
36 37 38 39 39 39 39 39 40 41 42 42 43 44 45 46 48 49 49 50 51 51 51 50 48 46 45 43 42 41 40 39 38 37 37 37 36 36 35 34 34 33 33
35 36 36 36 36 36 37 38 39 40 40 41 42 43 44 45 46 46 47 47 47 46 44 42 40 39 38 36 34 33 32 32 32 31 31 30 30 30 29 29 29 28 28
31 32 33 33 33 34 34 35 37 37 38 39 40 41 42 42 43 43 42 41 40 39 37 36 34 33 31 29 27 26 25 24 24 24 24 24 24 24 24 25 25 25 25
29 30 30 30 31 32 33 34 35 35 36 37 37 38 39 39 39 38 37 36 35 33 32 31 29 27 25 23 22 21 20 19 18 19 19 19 20 20 21 21 22 22 22
28 28 29 30 31 32 32 32 32 32 33 34 35 35 35 35 34 34 33 32 30 28 27 25 22 21 19 17 16 15 15 15 15 16 16 16 17 17 18 19 19 19 20
27 27 28 29 29 29 29 29 29 29 30 31 31 31 31 31 30 29 28 26 24 22 20 18 17 16 15 14 13 13 14 15 15 15 15 16 16 17 17 17 17 18 18
26 26 27 27 27 26 26 26 26 27 27 27 27 27 27 26 24 23 22 20 19 17 16 14 14 13 13 12 13 14 14 15 15 16 16 16 17 17 17 17 18 18 18
24 24 24 24 24 24 24 24 23 23 23 23 23 22 21 20 19 18 17 16 14 13 12 12 12 12 13 13 14 15 15 16 16 16 17 17 17 17 18 18 18 18 17
22 22 22 22 21 21 21 21 20 20 20 20 19 18 17 17 16 15 14 13 11 11 11 11 11 12 13 14 15 15 16 17 17 17 17 17 17 18 18 18 18 17 17
20 20 20 20 19 19 19 18 18 17 16 16 15 15 14 13 13 12 11 10 10 10 10 11 11 12 13 14 15 16 16 17 17 17 17 17 17 17 18 18 17 17 17
18 17 17 17 17 17 16 15 15 14 14 13 13 12 11 10 10 9 9 8 9 9 10 11 11 12 13 14 15 16 16 17 17 16 16 17 17 17 17 17 17 16 16
15 15 15 15 15 14 14 13 12 12 11 11 10 9 9 8 8 7 7 8 8 9 10 10 11 12 13 14 15 16 16 16 16 16 16 16 17 16 16 16 16 16 15
14 13 13 13 13 12 11 10 9 9 9 9 8 7 7 6 6 5 6 7 8 9 9 10 11 12 13 14 15 16 16 16 16 16 16 16 16 16 15 15 15 15 15
12 12 12 11 10 9 9 8 8 7 7 6 6 5 5 5 4 5 6 6 7 9 10 11 11 12 13 14 14 15 16 16 16 16 16 16 16 15 15 14 14 14 14
11 11 10 9 8 7 6 6 6 5 5 5 4 4 3 4 4 4 5 6 7 9 10 11 11 12 13 13 14 15 15 15 16 15 16 16 16 15 14 14 14 14 14
10 9 9 8 6 6 5 5 4 4 4 3 3 3 3 3 4 5 6 7 8 9 10 10 11 12 12 13 14 15 15 16 16 15 15 15 15 15 14 14 13 13 14
9 8 7 6 5 5 4 4 4 3 3 3 2 2 3 3 4 5 6 7 8 9 9 10 11 11 12 13 14 15 15 16 16 15 15 15 15 14 13 13 13 13 13
9 8 7 6 6 5 4 4 4 3 3 2 2 2 3 3 4 5 6 7 8 8 9 10 11 12 12 13 14 15 16 16 16 16 15 15 14 14 14 13 13 13 14
9 8 7 6 6 5 4 4 3 3 2 2 2 2 2 3 4 5 6 7 7 8 9 10 11 12 13 14 14 15 16 16 16 16 15 15 14 14 13 13 13 13 14
10 9 8 8 7 6 4 4 3 3 2 2 2 2 2 3 4 5 5 6 7 8 9 10 11 12 13 14 14 15 15 16 16 16 15 15 14 14 13 13 13 13 14
12 11 10 9 8 7 6 5 4 4 3 3 3 3 3 3 4 5 6 6 7 8 9 10 11 12 13 14 14 15 15 15 16 15 15 15 14 13 13 13 13 14 14
13 13 12 11 10 9 8 6 5 5 4 4 4 4 4 4 5 5 6 6 7 8 9 10 11 12 13 14 14 15 15 15 16 15 15 15 15 14 14 14 14 14 14
Wind_Direction
278 278 278 278 279 281 282 284 285 285 284 285 286 287 288 288 289 290 291 291 290 290 291 291 290 289 288 286 285 284 284 283 283 282 282 282 282 282 282 282 282 281 281
276 275 276 276 278 278 280 281 283 283 284 283 284 286 287 288 290 291 292 293 293 293 293 292 292 291 290 289 288 287 286 286 285 284 283 284 284 284 284 284 284 284 283
274 275 276 276 277 278 279 280 281 282 283 284 285 287 289 291 292 294 295 296 296 296 295 295 294 293 292 291 290 289 289 288 286 285 285 285 285 285 285 285 285 286 285
274 274 276 276 276 278 279 280 282 283 285 285 288 291 293 294 296 297 298 298 298 297 297 296 296 296 295 294 293 291 290 289 288 287 286 286 286 287 287 287 287 287 287
274 276 277 277 277 278 280 281 283 284 287 289 292 294 296 297 298 300 300 300 300 299 299 299 299 299 298 298 297 295 294 293 291 291 290 289 289 289 289 289 290 290 291
275 275 275 276 278 280 281 282 284 287 290 292 294 296 298 299 301 301 302 302 302 303 303 302 302 303 303 302 301 299 298 296 295 295 294 294 294 293 293 293 293 294 294
276 277 278 280 281 283 285 286 289 291 293 295 297 299 301 302 303 304 305 306 306 306 306 306 306 306 306 306 306 306 304 303 302 300 300 300 300 298 297 298 298 299 299
280 281 282 283 285 286 288 289 291 294 296 298 299 301 303 305 306 307 308 309 310 310 310 310 311 311 312 313 313 312 311 312 312 311 311 310 308 307 306 306 306 306 306
283 285 285 285 287 289 290 292 295 297 298 300 302 304 306 307 308 309 310 311 313 314 315 317 318 320 323 324 325 326 328 328 326 325 324 323 321 319 317 317 317 316 315
285 287 288 289 290 291 293 295 297 299 301 303 306 307 309 310 311 313 315 316 319 322 324 327 331 335 338 340 343 345 346 344 342 341 339 337 335 332 330 329 327 326 325
288 289 291 291 292 292 294 296 298 301 303 306 308 310 312 314 316 318 321 324 327 331 335 340 346 351 354 356 357 357 356 354 353 353 350 347 345 342 340 338 336 336 334
293 294 293 293 293 294 296 298 299 302 305 307 310 313 317 319 321 325 329 333 337 344 350 356 1 6 7 7 5 4 4 4 3 0 358 355 353 350 348 347 346 345 345
298 296 295 294 295 297 298 299 301 304 306 309 312 316 320 323 327 332 338 344 350 355 360 5 10 11 11 12 12 12 12 10 6 4 2 1 359 357 357 356 355 354 354
300 298 297 297 297 297 297 298 301 304 308 311 315 319 323 327 332 338 346 353 360 5 10 12 14 13 12 13 14 13 11 7 7 5 4 3 1 0 359 360 1 2 3
306 305 304 302 301 298 297 297 300 304 309 313 317 322 326 332 339 348 359 7 11 14 15 15 14 13 13 13 12 11 10 8 8 7 7 5 4 3 4 4 5 7 10
311 310 309 307 305 303 300 299 299 304 310 316 320 326 333 338 346 356 6 12 14 15 15 15 12 13 13 12 11 11 9 9 10 10 9 7 6 7 8 9 11 15 19
316 315 315 314 312 309 306 304 304 307 314 319 325 332 342 349 358 7 13 15 14 14 15 14 13 12 10 9 9 10 10 11 11 10 10 9 10 11 13 15 17 21 23
320 322 323 321 318 315 311 309 307 309 313 320 329 339 350 0 9 12 11 10 11 12 11 10 9 8 8 9 10 11 13 13 13 13 13 13 15 16 18 21 22 25 27
326 327 328 326 323 322 320 314 312 311 315 324 337 348 358 8 12 10 8 7 6 6 5 6 6 6 8 11 12 12 13 14 13 15 16 16 17 19 22 24 27 29 31
335 333 331 331 330 329 326 323 321 319 321 328 339 351 358 1 3 4 4 3 1 1 4 7 8 10 12 12 12 13 13 14 15 17 19 19 20 22 25 28 31 34 34
346 345 345 345 342 339 338 337 336 334 330 327 329 341 351 355 358 2 3 2 2 4 8 11 13 13 13 13 14 15 16 16 18 21 23 23 24 26 29 32 36 37 38
357 355 354 351 347 344 342 343 340 340 338 334 335 343 351 355 359 2 3 4 6 9 12 14 14 14 14 15 16 17 17 19 22 24 26 28 28 30 32 35 39 40 41
10 9 7 3 357 351 350 352 354 354 356 359 0 6 7 7 8 7 6 8 12 15 16 16 16 16 16 15 16 17 19 22 24 27 29 30 31 33 34 37 40 41 42
24 23 21 19 17 15 15 16 17 25 34 33 28 29 25 23 23 18 16 16 18 18 18 20 19 18 17 17 18 19 22 24 26 29 32 33 33 35 38 41 44 45 45
31 30 30 29 29 31 35 37 39 44 48 50 53 51 47 43 35 28 25 24 23 23 23 23 21 21 21 21 21 22 25 26 28 31 34 36 38 39 43 46 47 48 49
35 35 35 35 35 37 38 40 44 51 56 60 63 61 55 48 38 34 33 33 32 30 29 26 25 25 24 24 25 27 28 30 33 35 37 39 42 45 48 50 50 51 53
Height
5802 5801 5799 5798 5796 5794 5792 5790 5788 5786 5783 5780 5778 5775 5772 5768 5765 5761 5757 5753 5749 5745 5740 5735 5730 5724 5718 5712 5706 5700 5694 5688 5683 5677 5672 5668 5664 5660 5656 5652 5648 5645 5641
5792 5791 5789 5788 5786 5785 5782 5780 5778 5776 5773 5769 5767 5764 5760 5756 5752 5748 5744 5739 5735 5730 5724 5718 5713 5706 5700 5693 5687 5681 5675 5670 5665 5660 5655 5651 5648 5644 5640 5636 5632 5629 5625
5782 5781 5779 5778 5776 5774 5772 5770 5768 5765 5762 5759 5756 5752 5748 5744 5740 5735 5730 5725 5720 5714 5708 5701 5695 5689 5682 5676 5670 5664 5659 5654 5649 5644 5640 5636 5633 5629 5626 5623 5619 5616 5612
5772 5771 5769 5768 5766 5764 5762 5759 5757 5754 5751 5748 5744 5741 5736 5732 5727 5722 5717 5711 5705 5698 5692 5685 5679 5672 5666 5660 5654 5649 5644 5639 5635 5631 5627 5624 5621 5617 5614 5611 5608 5605 5601
5763 5761 5760 5758 5756 5754 5752 5749 5747 5744 5741 5737 5733 5729 5725 5720 5715 5709 5703 5697 5691 5684 5677 5671 5665 5658 5652 5646 5641 5636 5631 5626 5623 5619 5616 5613 5610 5607 5604 5601 5598 5595 5592
5753 5752 5750 5748 5746 5744 5742 5739 5737 5734 5730 5727 5723 5718 5714 5709 5703 5698 5691 5685 5678 5671 5665 5659 5653 5647 5641 5636 5631 5626 5621 5617 5614 5610 5607 5604 5601 5598 5595 5592 5590 5587 5584
5744 5742 5740 5739 5737 5734 5732 5730 5727 5724 5721 5717 5713 5708 5703 5698 5693 5687 5680 5674 5667 5661 5655 5649 5643 5638 5632 5627 5623 5619 5615 5611 5607 5604 5601 5598 5595 5592 5589 5587 5583 5580 5577
5735 5734 5732 5730 5728 5726 5723 5721 5718 5715 5711 5707 5703 5699 5694 5689 5683 5677 5671 5665 5659 5653 5647 5641 5636 5631 5626 5621 5617 5614 5610 5606 5603 5600 5597 5593 5590 5587 5584 5582 5578 5575 5571
5728 5726 5724 5722 5720 5717 5715 5712 5709 5706 5702 5699 5694 5690 5685 5680 5674 5669 5663 5657 5652 5646 5640 5635 5631 5626 5622 5617 5614 5610 5607 5604 5600 5597 5594 5591 5587 5584 5581 5578 5574 5571 5568
5720 5718 5716 5714 5712 5709 5706 5703 5700 5697 5694 5690 5686 5682 5677 5672 5667 5661 5656 5651 5646 5641 5636 5632 5627 5623 5619 5616 5612 5609 5605 5602 5599 5596 5592 5589 5585 5582 5578 5575 5571 5568 5564
5713 5711 5709 5706 5704 5701 5699 5696 5693 5690 5687 5683 5679 5675 5670 5666 5661 5656 5651 5647 5642 5638 5634 5630 5626 5622 5619 5615 5612 5609 5605 5602 5598 5595 5591 5588 5584 5580 5577 5573 5569 5565 5561
5706 5704 5701 5699 5697 5694 5692 5689 5686 5683 5680 5677 5673 5669 5665 5661 5657 5652 5648 5644 5640 5636 5633 5629 5626 5623 5619 5616 5613 5609 5606 5602 5598 5595 5591 5588 5584 5580 5576 5572 5568 5564 5560
5699 5697 5695 5692 5690 5687 5685 5683 5680 5677 5675 5671 5668 5665 5661 5657 5654 5650 5646 5643 5639 5636 5633 5630 5627 5623 5620 5617 5613 5610 5606 5602 5599 5595 5592 5588 5584 5580 5576 5572 5568 5563 5559
5693 5691 5688 5686 5684 5681 5679 5677 5675 5672 5670 5667 5664 5661 5658 5655 5652 5648 5645 5642 5639 5637 5634 5631 5628 5624 5621 5617 5614 5611 5607 5604 5600 5596 5593 5589 5585 5581 5576 5572 5568 5564 5560
5688 5685 5682 5680 5678 5676 5674 5672 5670 5668 5666 5664 5661 5658 5656 5653 5650 5647 5645 5642 5640 5637 5634 5631 5628 5625 5622 5619 5616 5612 5609 5605 5601 5597 5594 5590 5586 5581 5577 5573 5569 5564 5560
5683 5680 5678 5675 5673 5671 5669 5667 5666 5664 5663 5661 5658 5656 5654 5652 5649 5647 5645 5643 5640 5638 5635 5632 5629 5626 5623 5620 5617 5613 5609 5606 5602 5598 5594 5591 5587 5582 5578 5574 5570 5566 5562
5679 5677 5674 5671 5669 5667 5665 5664 5663 5662 5660 5658 5657 5655 5653 5651 5649 5647 5645 5643 5641 5639 5636 5633 5630 5627 5624 5621 5617 5614 5610 5606 5602 5599 5595 5591 5587 5583 5579 5575 5571 5567 5564
5676 5673 5671 5668 5666 5664 5663 5661 5660 5659 5658 5657 5655 5654 5652 5651 5649 5647 5645 5644 5641 5639 5636 5633 5630 5627 5624 5621 5617 5614 5610 5607 5603 5599 5596 5592 5588 5584 5580 5576 5573 5569 5565
5673 5671 5668 5666 5664 5662 5661 5660 5659 5658 5657 5656 5654 5653 5652 5650 5649 5647 5646 5644 5642 5639 5636 5634 5631 5628 5624 5621 5618 5614 5611 5607 5604 5600 5596 5592 5588 5585 5581 5578 5574 5571 5568
5670 5668 5666 5664 5662 5661 5660 5659 5658 5657 5656 5654 5654 5653 5651 5650 5649 5647 5646 5644 5641 5639 5636 5634 5631 5628 5625 5622 5619 5615 5612 5608 5604 5600 5597 5593 5589 5586 5582 5579 5576 5573 5570
5669 5667 5665 5663 5661 5660 5659 5658 5657 5656 5655 5654 5653 5652 5651 5650 5649 5647 5646 5644 5642 5639 5637 5634 5631 5629 5626 5622 5619 5616 5612 5609 5605 5601 5598 5594 5591 5587 5584 5581 5578 5575 5572
5668 5666 5664 5662 5661 5659 5658 5657 5656 5655 5654 5653 5652 5652 5651 5650 5649 5647 5646 5644 5642 5639 5637 5635 5632 5629 5626 5623 5620 5616 5613 5609 5606 5602 5599 5595 5592 5589 5586 5583 5580 5577 5574
5667 5665 5663 5662 5660 5658 5657 5656 5655 5654 5653 5653 5652 5652 5651 5650 5649 5647 5646 5644 5642 5640 5638 5635 5633 5630 5627 5624 5621 5617 5614 5610 5607 5603 5600 5597 5594 5591 5587 5584 5582 5579 5576
5668 5666 5664 5662 5660 5658 5657 5656 5655 5654 5653 5653 5652 5651 5651 5650 5649 5648 5646 5645 5643 5641 5638 5636 5634 5631 5628 5625 5622 5618 5615 5611 5608 5605 5602 5599 5596 5593 5590 5587 5584 5581 5579
5670 5668 5665 5663 5661 5659 5658 5657 5656 5655 5654 5653 5653 5652 5651 5650 5649 5648 5647 5645 5643 5641 5639 5637 5635 5632 5629 5626 5623 5620 5616 5613 5610 5607 5604 5600 5598 5595 5592 5589 5587 5584 5582
5672 5670 5668 5665 5663 5661 5660 5658 5657 5656 5655 5654 5653 5653 5652 5651 5650 5649 5648 5646 5644 5643 5641 5638 5636 5633 5631 5628 5625 5621 5618 5615 5612 5609 5606 5603 5600 5597 5595 5592 5589 5587 5584